Change the Weather History Date:

Friday, April 11, 2014

  Actual Average Record
Temperature  
Mean Temperature 56 °F -  
Max Temperature 78 °F 61 °F 78 °F (2014)
Min Temperature 33 °F 32 °F 10 °F (2013)
Degree Days  
Heating Degree Days 10    
Growing Degree Days 6 (Base 50)    
Moisture  
Dew Point 35 °F    
Average Humidity 50    
Maximum Humidity 93    
Minimum Humidity 18    
Precipitation  
Precipitation 0.00 in - - ()
Sea Level Pressure  
Sea Level Pressure 29.91 in    
Wind  
Wind Speed 5 mph (SW)    
Max Wind Speed 14 mph    
Max Gust Speed 23 mph    
Visibility 10 miles    
Events      
Averages and records for this station are not official NWS values.
T = Trace of Precipitation, MM = Missing Value Source: NWS Daily Summary

Daily Weather History Graph

Daily Weather History Graph

Search for Another Location

Airport or City:

Trip Planner

Search our weather history database for the weather conditions in past years. The results will help you decide how hot, cold, wet, or windy it might be!

Date:

Astronomy

Apr. 11, 2014 Rise Set
Actual Time 6:20 AM MDT 7:28 PM MDT
Civil Twilight 5:52 AM MDT 7:56 PM MDT
Nautical Twilight 5:19 AM MDT 8:29 PM MDT
Astronomical Twilight 4:44 AM MDT 9:05 PM MDT
Moon 4:10 PM MDT (4/11) 4:17 AM MDT (4/11)
Length of Visible Light 14h 03m
Length of Day
13h 07m
Waxing Gibbous, 87% of the Moon is Illuminated
Apr 11
Waxing Gibbous
Apr 15
Full
Apr 22
Last Quarter
Apr 29
New
May 6
First Quarter

Hourly Weather History & Observations

Time (MDT) Temp. Windchill Dew Point Humidity Pressure Visibility Wind Dir Wind Speed Gust Speed Precip Events Conditions
12:10 AM 48.2 °F - 37.4 °F 66% 29.96 in 10.0 mi SSW 8.1 mph - N/A   Clear
12:30 AM 46.4 °F 44.3 °F 37.4 °F 71% 29.97 in 10.0 mi SW 4.6 mph - N/A   Clear
12:45 AM 44.6 °F 43.1 °F 37.4 °F 76% 29.98 in 10.0 mi NNW 3.5 mph - N/A   Clear
1:10 AM 42.8 °F 38.0 °F 35.6 °F 76% 29.98 in 10.0 mi West 8.1 mph - N/A   Clear
1:30 AM 44.6 °F 41.4 °F 37.4 °F 76% 29.99 in 10.0 mi NW 5.8 mph - N/A   Clear
1:50 AM 44.6 °F 43.1 °F 37.4 °F 76% 29.99 in 10.0 mi WNW 3.5 mph - N/A   Clear
2:10 AM 44.6 °F 43.1 °F 35.6 °F 71% 29.99 in 10.0 mi North 3.5 mph - N/A   Clear
2:30 AM 42.8 °F 39.3 °F 35.6 °F 76% 30.00 in 10.0 mi North 5.8 mph - N/A   Clear
2:50 AM 41.0 °F 37.1 °F 35.6 °F 81% 30.00 in 10.0 mi North 5.8 mph - N/A   Clear
3:10 AM 39.2 °F - 33.8 °F 81% 30.00 in 10.0 mi Calm Calm - N/A   Clear
3:30 AM 37.4 °F 33.8 °F 33.8 °F 87% 30.00 in 10.0 mi North 4.6 mph - N/A   Clear
3:50 AM 37.4 °F 33.8 °F 33.8 °F 87% 30.00 in 10.0 mi North 4.6 mph - N/A   Scattered Clouds
4:10 AM 37.4 °F 32.8 °F 33.8 °F 87% 30.00 in 10.0 mi North 5.8 mph - N/A   Clear
4:30 AM 37.4 °F - 33.8 °F 87% 30.01 in 10.0 mi Calm Calm - N/A   Scattered Clouds
4:50 AM 39.2 °F - 35.6 °F 87% 30.01 in 10.0 mi Calm Calm - N/A   Scattered Clouds
5:10 AM 35.6 °F 31.7 °F 33.8 °F 93% 30.01 in 10.0 mi North 4.6 mph - N/A   Clear
5:30 AM 37.4 °F 33.8 °F 35.6 °F 93% 30.02 in 10.0 mi North 4.6 mph - N/A   Clear
5:50 AM 33.8 °F - 32.0 °F 93% 30.02 in 10.0 mi Calm Calm - N/A   Clear
6:05 AM 33.8 °F 30.8 °F 32.0 °F 93% 30.02 in 10.0 mi South 3.5 mph - N/A   Clear
6:50 AM 33.8 °F 28.6 °F 32.0 °F 93% 30.03 in 10.0 mi WSW 5.8 mph - N/A   Clear
7:10 AM 35.6 °F - 33.8 °F 93% 30.04 in 10.0 mi Calm Calm - N/A   Clear
7:30 AM 41.0 °F - 37.4 °F 87% 30.04 in 10.0 mi Calm Calm - N/A   Clear
7:50 AM 44.6 °F - 37.4 °F 76% 30.04 in 10.0 mi Calm Calm - N/A   Clear
8:10 AM 44.6 °F - 37.4 °F 76% 30.04 in 10.0 mi Calm Calm - N/A   Clear
8:30 AM 46.4 °F 45.2 °F 37.4 °F 71% 30.04 in 10.0 mi South 3.5 mph - N/A   Clear
8:50 AM 50.0 °F - 39.2 °F 66% 30.04 in 10.0 mi SSW 4.6 mph - N/A   Clear
9:10 AM 53.6 °F - 41.0 °F 62% 30.04 in 10.0 mi SSW 3.5 mph - N/A   Clear
9:30 AM 53.6 °F - 41.0 °F 62% 30.03 in 10.0 mi SW 3.5 mph - N/A   Clear
9:50 AM 57.2 °F - 41.0 °F 55% 30.03 in 10.0 mi Calm Calm - N/A   Clear
10:10 AM 59.0 °F - 41.0 °F 51% 30.02 in 10.0 mi South 3.5 mph - N/A   Clear
10:30 AM 62.6 °F - 41.0 °F 45% 30.02 in 10.0 mi South 5.8 mph - N/A   Clear
10:50 AM 64.4 °F - 39.2 °F 40% 30.01 in 10.0 mi South 3.5 mph - N/A   Clear
11:10 AM 68.0 °F - 37.4 °F 33% 30.01 in 10.0 mi South 4.6 mph - N/A   Clear
11:30 AM 69.8 °F - 32.0 °F 25% 29.99 in 10.0 mi SSE 6.9 mph - N/A   Clear
11:50 AM 69.8 °F - 32.0 °F 25% 29.98 in 10.0 mi SE 4.6 mph - N/A   Clear
12:10 PM 69.8 °F - 32.0 °F 25% 29.96 in 10.0 mi WSW 3.5 mph - N/A   Clear
12:30 PM 71.6 °F - 32.0 °F 23% 29.95 in 10.0 mi SSE 4.6 mph - N/A   Clear
12:50 PM 71.6 °F - 32.0 °F 23% 29.94 in 10.0 mi South 6.9 mph - N/A   Clear
1:10 PM 73.4 °F - 33.8 °F 23% 29.92 in 10.0 mi WSW 4.6 mph - N/A   Clear
1:30 PM 73.4 °F - 33.8 °F 23% 29.91 in 10.0 mi South 6.9 mph - N/A   Clear
1:50 PM 75.2 °F - 32.0 °F 21% 29.90 in 10.0 mi SW 5.8 mph 19.6 mph N/A   Clear
2:10 PM 77.0 °F - 32.0 °F 19% 29.89 in 10.0 mi SW 13.8 mph 19.6 mph N/A   Clear
2:30 PM 77.0 °F - 33.8 °F 21% 29.87 in 10.0 mi SSW 8.1 mph 16.1 mph N/A   Clear
2:50 PM 77.0 °F - 33.8 °F 21% 29.86 in 10.0 mi SW 11.5 mph 21.9 mph N/A   Clear
3:10 PM 77.0 °F - 33.8 °F 21% 29.85 in 10.0 mi SSW 10.4 mph 19.6 mph N/A   Clear
3:30 PM 78.8 °F - 33.8 °F 20% 29.84 in 10.0 mi SW 9.2 mph 17.3 mph N/A   Clear
3:50 PM 78.8 °F - 32.0 °F 18% 29.82 in 10.0 mi SW 11.5 mph 19.6 mph N/A   Clear
4:10 PM 78.8 °F - 32.0 °F 18% 29.81 in 10.0 mi SW 10.4 mph 23.0 mph N/A   Clear
4:30 PM 78.8 °F - 32.0 °F 18% 29.79 in 10.0 mi WSW 8.1 mph 12.7 mph N/A   Clear
4:50 PM 78.8 °F - 32.0 °F 18% 29.79 in 10.0 mi WSW 8.1 mph - N/A   Clear
5:10 PM 78.8 °F - 32.0 °F 18% 29.78 in 10.0 mi West 12.7 mph - N/A   Clear
5:30 PM 78.8 °F - 32.0 °F 18% 29.77 in 10.0 mi SSW 6.9 mph - N/A   Clear
5:50 PM 78.8 °F - 32.0 °F 18% 29.76 in 10.0 mi SSW 5.8 mph - N/A   Clear
6:10 PM 77.0 °F - 33.8 °F 21% 29.76 in 10.0 mi SW 4.6 mph - N/A   Clear
6:30 PM 75.2 °F - 35.6 °F 24% 29.76 in 10.0 mi SW 5.8 mph - N/A   Clear
6:50 PM 73.4 °F - 35.6 °F 25% 29.75 in 10.0 mi SW 5.8 mph - N/A   Clear
7:10 PM 71.6 °F - 33.8 °F 25% 29.75 in 10.0 mi SSW 4.6 mph - N/A   Clear
7:30 PM 69.8 °F - 32.0 °F 25% 29.75 in 10.0 mi Calm Calm - N/A   Clear
7:50 PM 66.2 °F - 32.0 °F 28% 29.75 in 10.0 mi Calm Calm - N/A   Clear
8:10 PM 64.4 °F - 33.8 °F 32% 29.76 in 10.0 mi SE 3.5 mph - N/A   Clear
8:30 PM 59.0 °F - 35.6 °F 42% 29.76 in 10.0 mi Calm Calm - N/A   Clear
8:50 PM 59.0 °F - 33.8 °F 39% 29.76 in 10.0 mi Calm Calm - N/A   Clear
9:10 PM 55.4 °F - 35.6 °F 47% 29.77 in 10.0 mi SE 3.5 mph - N/A   Clear
9:30 PM 57.2 °F - 33.8 °F 41% 29.77 in 10.0 mi SSE 3.5 mph - N/A   Clear
9:50 PM 51.8 °F - 33.8 °F 50% 29.76 in 10.0 mi Calm Calm - N/A   Clear
10:10 PM 53.6 °F - 33.8 °F 47% 29.75 in 10.0 mi South 8.1 mph - N/A   Clear
10:30 PM 53.6 °F - 33.8 °F 47% 29.75 in 10.0 mi West 3.5 mph - N/A   Clear
10:50 PM 53.6 °F - 33.8 °F 47% 29.73 in 10.0 mi West 3.5 mph - N/A   Clear
11:10 PM 50.0 °F - 33.8 °F 54% 29.73 in 10.0 mi Calm Calm - N/A   Clear
11:30 PM 51.8 °F - 33.8 °F 50% 29.72 in 10.0 mi Calm Calm - N/A   Clear
11:50 PM 48.2 °F - 33.8 °F 58% 29.72 in 10.0 mi Calm Calm - N/A   Clear